TimeMDT,TemperatureF,Dew PointF,Humidity,Sea Level PressureIn,VisibilityMPH,Wind Direction,Wind SpeedMPH,Gust SpeedMPH,PrecipitationIn,Events,Conditions,WindDirDegrees,DateUTC
12:53 AM,36.0,12.9,39,30.05,10.0,WNW,12.7,-,N/A,,Clear,290,2012-10-19 06:53:00
1:53 AM,35.1,16.0,46,30.04,10.0,WNW,11.5,-,N/A,,Clear,300,2012-10-19 07:53:00
2:53 AM,34.0,17.1,50,30.03,10.0,WNW,12.7,-,N/A,,Clear,290,2012-10-19 08:53:00
3:53 AM,34.0,17.1,50,30.02,10.0,WNW,13.8,-,N/A,,Clear,300,2012-10-19 09:53:00
4:53 AM,34.0,18.0,52,30.01,10.0,WNW,15.0,-,N/A,,Clear,290,2012-10-19 10:53:00
5:53 AM,34.0,18.0,52,30.03,10.0,WNW,12.7,-,N/A,,Clear,290,2012-10-19 11:53:00
6:53 AM,30.9,18.0,59,30.04,10.0,WNW,11.5,-,N/A,,Clear,300,2012-10-19 12:53:00
7:53 AM,36.0,19.0,50,30.03,10.0,WNW,9.2,-,N/A,,Clear,300,2012-10-19 13:53:00
8:53 AM,44.1,19.9,38,30.01,10.0,West,9.2,-,N/A,,Clear,280,2012-10-19 14:53:00
9:53 AM,52.0,23.0,32,29.96,10.0,NW,8.1,-,N/A,,Clear,310,2012-10-19 15:53:00
10:53 AM,61.0,25.0,25,29.93,10.0,WNW,8.1,-,N/A,,Clear,300,2012-10-19 16:53:00
11:53 AM,68.0,25.0,20,29.86,10.0,NW,16.1,-,N/A,,Clear,320,2012-10-19 17:53:00
12:53 PM,68.0,26.1,21,29.84,10.0,West,6.9,20.7,N/A,,Clear,270,2012-10-19 18:53:00
1:53 PM,71.1,26.1,19,29.80,10.0,NW,15.0,21.9,N/A,,Clear,320,2012-10-19 19:53:00
2:53 PM,71.1,27.0,19,29.77,7.0,NW,9.2,-,N/A,,Clear,310,2012-10-19 20:53:00
3:53 PM,72.0,25.0,17,29.76,10.0,NNW,11.5,-,N/A,,Clear,340,2012-10-19 21:53:00
4:53 PM,70.0,25.0,18,29.76,10.0,North,9.2,-,N/A,,Clear,360,2012-10-19 22:53:00
5:53 PM,64.0,27.0,25,29.78,10.0,NE,5.8,-,N/A,,Clear,40,2012-10-19 23:53:00
6:53 PM,52.0,25.0,35,29.83,10.0,Calm,Calm,-,N/A,,Clear,0,2012-10-20 00:53:00
7:53 PM,50.0,27.0,41,29.83,10.0,South,5.8,-,N/A,,Clear,190,2012-10-20 01:53:00
8:53 PM,52.0,28.0,40,29.80,10.0,SW,8.1,-,N/A,,Clear,230,2012-10-20 02:53:00
9:53 PM,53.1,26.1,35,29.76,10.0,WNW,11.5,-,N/A,,Clear,290,2012-10-20 03:53:00
10:53 PM,51.1,25.0,36,29.73,10.0,WNW,11.5,-,N/A,,Clear,300,2012-10-20 04:53:00
11:53 PM,52.0,24.1,34,29.71,10.0,WNW,11.5,-,N/A,,Clear,290,2012-10-20 05:53:00